Total_Precipitation_Accumulation
0.98 0.81 0.78 0.89 0.94 1.05 2.30 2.15 2.79 2.77 2.34 1.71 1.34 0.97 0.75 0.77 0.46 0.43 0.52 0.55 0.50 0.40 0.31 0.20 0.24 0.24 0.21 0.17 0.16 0.19 0.18 0.16 0.22 0.30 0.19 0.06 0.03 0.03 0.04 0.08 0.06 0.04 0.04
0.67 0.51 0.57 0.89 0.93 0.80 1.71 2.35 2.47 2.80 2.26 1.94 1.56 1.41 1.23 1.16 1.14 0.95 0.90 1.06 1.06 1.02 0.76 0.50 0.43 0.48 0.42 0.38 0.33 0.28 0.29 0.44 0.67 0.64 0.42 0.17 0.05 0.02 0.04 0.05 0.03 0.04 0.02
0.39 0.43 0.39 0.52 1.39 1.10 0.83 1.58 2.43 2.77 2.22 2.44 2.64 2.54 2.38 2.09 1.65 1.30 1.29 1.27 1.30 1.63 1.53 1.18 0.86 0.85 0.68 0.66 0.57 0.57 0.78 0.97 0.70 0.64 0.60 0.33 0.12 0.04 0.02 0.03 0.04 0.02 0.01
0.62 0.58 0.40 0.31 0.53 0.99 0.90 0.94 1.58 2.66 2.57 2.64 3.40 2.78 1.63 1.61 1.80 1.57 1.70 1.55 1.24 1.44 1.49 1.41 1.32 1.48 1.38 1.26 1.25 1.14 1.26 1.32 1.09 0.92 0.54 0.41 0.31 0.28 0.18 0.07 0.07 0.05 0.05
1.41 1.17 0.48 0.47 0.60 0.70 0.75 0.69 1.15 1.74 2.58 2.42 2.50 3.06 2.60 1.70 1.60 1.45 1.35 1.08 1.17 1.05 1.15 1.37 1.57 1.61 1.79 1.81 1.69 1.53 1.60 1.80 1.61 1.26 0.87 0.73 0.61 0.51 0.45 0.25 0.16 0.13 0.09
1.81 1.64 1.64 0.98 0.83 0.90 0.92 0.70 0.98 1.24 1.65 2.21 1.84 1.96 2.55 2.81 2.36 1.72 1.58 1.61 1.40 1.57 1.38 1.44 1.66 1.79 1.62 1.68 2.02 2.22 1.99 1.55 1.41 1.42 1.06 0.85 0.83 0.67 0.56 0.43 0.26 0.24 0.18
2.10 2.14 2.24 2.07 1.97 1.73 1.28 0.97 0.80 1.54 1.12 1.77 1.43 1.33 1.39 1.78 2.09 2.26 2.01 1.75 1.62 1.47 1.54 1.61 1.34 1.52 1.61 1.54 1.54 1.50 1.57 1.72 1.65 1.50 1.21 1.00 0.94 0.90 0.82 0.72 0.54 0.46 0.34
2.11 1.55 1.90 2.10 1.83 1.61 0.96 0.46 0.57 1.57 1.33 1.15 1.07 1.08 1.39 1.09 1.22 1.40 1.62 1.80 1.45 1.33 1.38 1.49 1.85 1.50 1.47 1.57 1.41 1.40 1.35 1.31 1.33 1.54 1.69 1.48 1.17 1.07 1.16 1.06 1.08 0.96 0.74
1.28 1.44 1.82 1.65 1.29 0.68 0.95 0.68 0.62 0.61 1.23 1.24 1.16 1.04 1.32 1.02 0.85 0.92 0.98 0.98 1.13 1.23 1.32 1.35 1.39 1.81 1.94 1.76 2.19 2.01 1.72 1.87 1.72 1.59 1.47 1.40 1.45 1.52 1.39 1.53 1.80 2.22 2.02
0.73 0.86 0.98 1.29 1.09 0.91 1.33 0.95 0.74 0.74 0.70 1.44 1.18 1.56 1.47 1.19 1.03 0.89 0.84 0.93 0.89 0.87 1.09 1.35 1.34 1.30 1.50 1.84 1.75 2.26 2.36 1.80 1.77 1.83 1.82 1.64 1.40 1.41 1.63 1.75 1.76 1.94 2.17
0.22 0.19 0.13 0.15 0.44 0.66 0.91 0.81 0.81 0.71 0.77 0.95 1.43 1.98 2.86 1.50 1.43 1.20 0.84 0.88 0.92 0.77 0.81 0.90 1.13 1.21 1.21 1.24 1.42 1.54 1.90 2.38 2.04 1.61 1.59 1.55 1.49 1.61 1.62 1.73 2.02 2.35 2.52
0.02 0.10 0.06 0.03 0.13 0.33 0.49 0.96 1.13 1.09 1.43 1.33 1.67 1.77 1.94 2.62 1.89 1.93 1.68 1.15 0.92 0.77 0.75 0.83 0.85 1.00 0.97 1.21 1.40 1.37 1.59 1.68 1.80 1.89 1.77 1.61 1.83 2.05 1.96 2.06 2.07 2.06 2.00
0.00 0.00 0.00 0.00 0.00 0.03 0.13 0.48 0.88 0.70 1.21 0.98 1.12 1.42 1.41 1.81 2.05 2.13 2.99 2.68 1.88 1.12 1.03 1.16 0.99 0.86 0.91 0.90 0.89 0.99 1.13 1.34 1.65 1.71 1.63 1.50 1.56 1.68 1.65 1.71 1.76 1.76 1.84
0.01 0.00 0.00 0.00 0.00 0.03 0.05 0.06 0.19 0.39 0.57 0.64 0.77 1.16 1.51 1.34 1.63 1.36 1.53 1.91 2.13 1.71 1.31 1.14 1.18 1.06 0.98 1.07 1.03 0.95 0.93 1.02 1.20 1.53 1.70 1.57 1.52 1.56 1.65 1.84 1.91 1.98 2.03
0.01 0.01 0.00 0.01 0.00 0.01 0.02 0.02 0.04 0.08 0.25 0.52 0.47 0.42 1.01 0.78 0.92 1.14 1.10 1.53 1.22 1.35 1.26 1.05 0.99 1.13 1.22 1.26 1.24 1.18 1.25 1.34 1.52 1.58 1.65 1.62 1.60 1.53 1.42 1.41 1.34 1.39 1.53
0.02 0.00 0.00 0.00 0.01 0.01 0.00 0.00 0.03 0.06 0.07 0.09 0.10 0.20 0.52 0.48 0.54 0.75 0.77 1.09 1.33 1.54 1.76 1.61 1.34 1.16 1.23 1.71 1.73 1.33 1.38 1.66 1.47 1.52 1.45 1.41 1.52 1.28 1.41 1.53 1.48 1.44 1.59
0.01 0.00 0.00 0.00 0.00 0.00 0.00 0.01 0.03 0.02 0.03 0.06 0.06 0.04 0.15 0.27 0.16 0.42 0.50 0.69 1.14 1.11 1.35 1.80 2.09 2.07 2.19 2.09 1.70 1.64 1.07 1.30 1.54 1.31 1.24 1.15 1.13 1.14 0.86 0.96 1.07 1.24 1.51
0.00 0.00 0.00 0.00 0.00 0.00 0.00 0.01 0.12 0.06 0.33 0.14 0.29 0.37 0.34 0.30 0.25 0.28 0.47 0.42 0.56 0.86 1.05 1.17 1.56 1.40 1.50 1.70 1.43 1.27 1.06 1.13 1.11 0.95 0.86 0.88 0.91 0.97 0.89 0.88 1.08 1.01 0.88
0.00 0.00 0.00 0.00 0.00 0.00 0.00 0.01 0.00 0.01 0.06 0.21 0.40 0.28 0.42 0.30 0.33 0.60 0.68 0.92 1.15 1.03 0.88 0.81 0.73 0.65 0.75 0.81 0.86 0.94 0.82 0.77 0.85 0.79 0.75 0.83 1.00 1.12 1.13 1.19 1.21 1.02 0.98
0.00 0.00 0.00 0.00 0.01 0.01 0.03 0.02 0.04 0.05 0.08 0.16 0.29 0.34 0.46 0.70 0.71 0.87 0.74 0.55 0.57 0.62 0.50 0.32 0.20 0.16 0.18 0.22 0.35 0.58 0.66 0.71 0.71 0.54 0.71 0.82 0.72 1.12 1.43 1.10 1.05 0.97 0.80
0.06 0.06 0.06 0.07 0.10 0.18 0.19 0.16 0.29 0.38 0.45 0.58 0.88 0.67 0.67 0.84 0.73 0.59 0.50 0.32 0.18 0.13 0.09 0.05 0.02 0.01 0.00 0.00 0.01 0.05 0.13 0.26 0.38 0.40 0.37 0.40 0.46 0.57 0.53 0.56 0.59 0.76 0.83
0.29 0.32 0.23 0.34 0.46 0.74 0.62 0.51 0.60 0.67 0.67 0.50 0.43 0.43 0.32 0.24 0.18 0.08 0.04 0.01 0.00 0.00 0.00 0.00 0.00 0.00 0.00 0.00 0.00 0.01 0.03 0.08 0.09 0.07 0.07 0.16 0.36 0.19 0.15 0.19 0.32 0.41 0.42
0.13 0.18 0.25 0.41 0.42 0.51 0.38 0.39 0.25 0.25 0.25 0.14 0.10 0.08 0.05 0.01 0.00 0.00 0.00 0.00 0.00 0.00 0.00 0.00 0.00 0.00 0.00 0.00 0.00 0.01 0.07 0.09 0.08 0.08 0.21 0.20 0.05 0.03 0.02 0.03 0.06 0.10 0.07
0.03 0.01 0.01 0.01 0.04 0.03 0.03 0.03 0.02 0.03 0.03 0.01 0.00 0.00 0.00 0.01 0.00 0.00 0.00 0.00 0.00 0.00 0.00 0.00 0.00 0.00 0.00 0.00 0.00 0.02 0.05 0.05 0.11 0.20 0.21 0.06 0.04 0.05 0.05 0.08 0.07 0.08 0.10
0.00 0.00 0.00 0.00 0.01 0.00 0.00 0.00 0.00 0.00 0.00 0.01 0.01 0.00 0.01 0.01 0.01 0.01 0.01 0.01 0.01 0.01 0.01 0.01 0.01 0.02 0.02 0.01 0.07 0.09 0.07 0.11 0.20 0.11 0.02 0.02 0.02 0.02 0.03 0.05 0.08 0.12 0.21
0.00 0.01 0.01 0.02 0.02 0.02 0.01 0.00 0.00 0.00 0.00 0.01 0.01 0.01 0.03 0.04 0.05 0.05 0.04 0.06 0.09 0.10 0.11 0.09 0.09 0.06 0.08 0.11 0.14 0.12 0.19 0.23 0.16 0.11 0.05 0.03 0.03 0.03 0.03 0.08 0.15 0.20 0.27